Theta_e
294 289 286 289 290 290 289 287 286 289 294 290 290 290 293 296 293 293 292 293 292 292 293 294 294 294 295 295 296 297 298 298 300 303 305 306 307 309 310 311 312 314 315 314
290 287 293 294 294 292 289 287 286 290 293 290 289 289 293 294 292 292 292 291 291 291 291 292 292 292 292 292 293 294 295 297 298 299 300 302 302 301 305 307 309 310 311 311
288 292 296 295 292 290 289 287 287 288 289 290 286 285 288 291 292 292 292 291 291 289 289 290 290 290 291 290 290 292 293 294 295 297 299 298 299 298 297 297 302 305 306 306
292 296 294 291 290 291 286 291 290 289 284 280 286 279 286 288 288 289 289 288 288 288 289 290 289 289 289 289 290 291 292 292 294 294 294 294 293 293 294 295 296 299 301 302
290 290 289 288 290 292 288 290 288 287 284 281 283 279 284 288 286 287 287 288 288 288 288 288 289 290 289 289 288 289 289 291 291 292 292 291 291 292 292 293 293 294 296 298
290 292 291 291 293 292 291 288 287 285 283 277 283 283 283 285 287 287 288 288 288 287 287 288 289 289 288 288 287 288 288 288 289 290 290 290 289 289 289 289 290 291 292 294
289 289 291 294 289 290 289 284 279 277 276 278 285 283 286 287 289 289 287 286 286 286 286 286 286 286 287 286 286 287 287 286 288 288 288 288 288 288 288 288 288 288 289 289
285 284 289 291 290 288 286 286 280 272 275 277 284 280 286 288 289 289 288 287 286 286 286 285 286 286 286 286 285 285 285 285 286 286 287 287 287 287 287 287 287 286 287 288
285 285 289 289 289 290 286 284 288 281 283 280 281 285 288 288 287 286 285 285 284 285 285 285 285 285 285 285 285 285 285 285 285 285 285 286 286 287 286 285 286 285 285 287
289 283 290 288 289 288 287 288 282 281 272 273 278 279 281 284 285 285 284 284 284 284 285 285 285 285 285 284 283 285 284 283 284 285 284 284 284 285 285 284 284 283 284 285
291 287 285 289 286 286 284 283 284 286 283 277 271 278 287 287 286 283 283 285 285 285 284 285 285 284 284 284 283 283 282 283 283 283 284 284 283 283 284 283 283 283 283 283
292 288 278 284 289 289 288 286 285 278 277 278 279 280 288 286 285 286 285 286 285 286 284 283 284 284 284 283 283 281 282 282 282 282 283 282 283 282 283 284 283 282 282 282
291 283 272 276 282 286 284 286 286 286 283 275 275 277 286 285 286 287 288 286 284 283 281 282 283 283 282 282 282 280 281 281 282 282 281 280 280 280 280 281 281 282 281 281
293 285 277 274 277 282 278 281 282 279 272 271 275 277 284 285 282 284 285 286 282 281 279 279 279 279 280 280 280 279 280 281 281 281 281 279 279 279 280 280 279 279 280 279
288 277 281 281 281 280 279 279 280 279 280 273 277 277 281 283 280 279 279 281 281 281 280 279 279 279 280 280 280 280 280 280 280 279 279 279 279 280 280 279 279 279 278 279
284 272 276 269 279 279 277 278 278 278 279 278 279 278 285 279 280 279 279 279 278 278 279 280 280 280 280 280 280 280 280 280 280 278 279 280 280 280 279 279 279 279 279 278
280 274 267 265 276 272 267 273 277 278 279 278 274 278 274 277 279 277 277 278 278 279 279 279 279 279 279 279 280 279 279 279 278 278 278 278 278 278 278 278 278 277 277 277
278 273 267 262 262 257 273 277 277 276 278 275 273 271 276 276 277 278 278 277 278 278 279 279 279 279 280 279 278 278 278 277 277 275 275 276 276 275 276 275 275 274 275 274
280 277 265 263 258 267 274 275 274 273 271 273 272 275 277 276 275 274 278 279 279 279 280 280 280 279 278 277 277 276 276 276 275 275 274 274 272 271 271 270 270 270 270 270
277 278 273 255 259 258 270 272 276 275 266 269 268 269 273 275 268 271 278 280 280 281 280 279 278 277 277 275 275 274 273 272 272 272 272 271 270 267 267 267 266 266 266 267
262 262 270 270 265 265 274 276 277 264 268 271 272 275 275 273 274 277 279 279 280 280 278 277 276 275 274 274 273 271 271 269 271 269 269 268 267 265 264 264 264 263 263 264
267 263 260 258 258 261 275 274 271 274 279 277 278 277 276 277 278 278 279 278 278 277 276 275 273 273 272 272 270 269 268 269 268 267 265 263 262 262 263 261 261 261 261 260
266 269 265 268 267 275 276 276 279 279 278 279 279 279 278 277 277 278 277 277 277 275 275 272 270 270 270 269 267 264 266 266 265 259 259 260 261 261 261 260 260 260 260 260
273 275 270 270 274 276 277 278 279 279 279 280 279 279 278 277 278 278 277 277 276 273 272 270 268 267 266 265 266 262 264 264 255 254 258 260 260 260 260 261 261 260 259 259
273 273 271 272 276 276 277 278 279 279 279 279 279 278 278 277 277 278 276 273 273 272 270 268 266 266 264 263 261 259 261 257 257 258 260 260 260 259 260 260 260 261 262 263
277 275 273 271 277 276 277 279 279 278 278 279 278 277 278 278 276 274 271 271 270 268 267 266 265 263 261 258 258 256 255 254 255 258 259 259 259 260 260 259 259 265 267 268
Wind_Speed
2 5 7 11 9 5 4 4 5 5 8 4 7 7 14 17 5 10 8 14 13 13 9 13 15 15 16 17 16 16 16 13 10 5 4 3 2 2 2 2 1 4 4 6
4 7 12 5 5 5 2 4 7 5 3 1 6 12 15 12 7 10 13 11 9 9 12 15 16 17 17 15 15 16 15 15 10 5 3 3 3 3 2 3 4 3 1 3
8 8 5 5 5 3 4 5 4 8 3 5 3 7 5 5 11 14 12 11 10 10 12 13 15 14 13 16 15 16 15 14 13 11 5 4 4 4 5 5 4 4 3 2
6 6 6 4 5 7 5 6 7 5 3 4 3 6 8 8 7 7 8 8 8 10 11 11 11 13 13 12 11 13 14 15 14 15 10 11 6 5 4 3 4 5 6 5
6 7 4 3 7 8 7 3 1 2 3 2 4 2 8 9 3 5 5 9 9 8 9 10 9 9 9 7 10 10 12 14 14 15 13 9 10 6 4 6 8 8 6 7
6 2 5 8 5 4 4 3 4 2 3 3 8 7 5 5 8 7 6 8 9 8 8 8 7 6 7 7 8 11 13 14 14 13 14 14 14 10 9 9 8 7 6 6
3 5 3 4 2 5 4 4 3 4 1 7 2 0 7 4 7 13 13 9 7 7 7 7 8 8 8 9 9 10 11 13 12 12 13 12 10 10 10 9 7 8 7 5
4 6 6 2 3 5 4 6 5 6 3 4 6 5 4 8 15 15 11 8 7 7 6 6 6 6 6 7 8 8 8 8 7 9 10 9 9 6 6 6 7 7 7 6
5 4 1 3 2 5 4 4 4 5 0 1 5 1 5 7 11 11 10 8 7 7 6 6 6 6 6 6 6 6 6 6 8 8 6 7 6 7 6 8 7 7 7 9
3 2 1 2 1 3 2 3 2 3 2 6 5 5 5 6 10 8 7 7 6 5 6 6 6 6 4 5 6 7 7 7 6 6 6 5 6 6 4 3 5 4 4 6
4 5 3 3 3 5 1 2 1 3 5 5 3 6 6 8 11 10 7 7 8 8 7 6 5 6 7 5 5 5 4 2 4 6 6 6 6 6 6 6 6 6 6 5
3 4 3 8 4 4 5 5 5 4 4 3 2 8 5 12 11 10 10 12 7 7 7 7 6 6 5 4 2 3 3 2 2 1 1 2 4 4 5 6 7 7 8 9
6 1 3 10 4 2 2 3 4 3 2 6 4 9 3 6 6 7 7 7 8 7 7 5 5 5 5 4 3 3 4 5 5 3 3 3 5 5 5 6 6 7 7 9
4 4 8 9 5 3 2 5 1 6 2 3 9 8 18 14 6 7 7 7 7 8 8 7 6 6 5 5 4 4 4 3 2 2 3 4 5 6 6 7 7 8 9 10
5 6 5 2 1 3 4 10 12 7 12 8 20 15 19 14 5 6 6 6 7 7 8 7 7 7 7 6 6 5 4 3 2 3 4 5 5 5 5 6 7 7 7 8
1 2 3 6 3 6 9 18 12 17 16 16 19 22 15 1 3 5 7 7 6 5 6 7 7 8 8 8 7 6 5 3 3 5 6 7 10 11 12 12 12 13 13 13
6 6 4 8 2 4 9 13 18 12 13 7 10 11 1 5 6 6 5 5 5 5 5 5 6 5 7 7 5 3 2 3 5 6 8 11 11 13 13 13 13 15 15 14
7 6 4 5 4 2 9 4 5 10 10 4 1 4 8 5 5 4 3 1 0 2 4 6 6 4 3 3 4 3 3 4 3 5 6 7 9 10 12 13 15 17 16 17
5 6 2 5 6 6 15 7 7 7 8 4 6 4 5 3 3 2 3 4 5 6 7 6 3 4 5 5 4 5 5 5 5 7 8 5 5 9 13 15 17 16 17 18
8 2 6 3 5 10 8 2 4 5 7 7 5 5 7 4 1 5 5 6 7 8 4 6 6 5 5 4 4 3 2 2 5 8 7 9 11 10 12 14 16 15 15 18
3 2 16 14 8 9 7 7 4 7 9 4 5 5 7 5 8 6 5 7 6 5 8 7 6 5 5 3 4 2 2 5 5 6 9 10 10 12 13 14 13 15 15 16
8 8 5 3 1 10 8 4 7 8 3 4 5 6 7 8 7 6 8 7 6 8 6 5 6 5 3 4 4 1 5 5 6 8 9 11 12 10 10 13 13 14 14 16
1 9 8 11 10 6 7 7 7 5 6 6 6 8 10 9 7 8 7 6 7 8 6 5 6 4 3 3 3 3 4 6 6 4 8 10 11 10 10 12 13 12 13 12
5 4 5 3 6 12 9 9 8 8 9 9 9 10 8 10 9 9 6 7 8 6 5 3 4 3 3 2 1 4 5 6 4 6 8 9 10 11 10 9 10 11 12 11
8 5 8 8 12 10 12 12 12 11 10 9 8 9 11 9 9 9 7 5 5 5 4 3 2 1 2 1 2 4 5 4 6 7 9 10 9 9 11 11 11 11 13 15
12 18 12 12 15 9 10 9 7 8 10 10 9 7 6 6 7 5 4 4 4 4 2 1 2 2 3 3 4 4 5 4 6 9 8 8 9 8 10 11 12 23 26 30
Wind_Direction
216 103 204 219 204 216 261 231 239 250 275 336 288 299 297 276 309 308 51 86 79 63 48 40 35 29 28 28 33 24 30 23 37 28 27 39 73 26 32 40 142 176 183 177
70 218 225 224 237 232 257 277 277 293 273 327 302 293 270 326 54 84 84 76 79 74 49 40 34 29 26 26 24 30 29 22 24 34 32 34 48 49 37 9 24 46 148 193
170 219 170 186 260 312 255 227 224 225 288 291 287 297 275 45 81 79 72 82 70 67 61 46 38 28 27 29 23 23 24 30 26 10 21 34 34 27 21 10 352 1 81 148
237 240 219 242 249 174 249 232 220 234 82 224 80 281 286 141 104 90 98 86 81 71 66 60 49 40 34 27 28 32 30 28 25 25 36 42 45 41 2 355 0 18 27 35
248 179 171 176 220 163 217 53 258 207 200 16 270 144 261 117 163 141 117 91 75 70 76 70 59 50 36 31 31 36 40 37 34 35 33 41 36 21 5 15 16 1 8 19
219 171 181 210 236 182 124 44 310 67 110 286 224 184 273 197 181 135 103 83 79 71 56 56 57 57 45 29 35 37 35 32 30 32 35 34 36 28 29 18 16 359 3 14
261 204 205 174 159 26 82 76 321 1 33 226 285 200 252 21 96 131 121 105 93 87 77 58 48 45 47 39 38 42 37 38 29 26 32 29 28 28 28 19 19 11 8 5
200 321 152 149 167 186 178 161 161 229 220 273 321 260 340 48 85 96 97 102 93 82 74 68 78 78 69 53 47 45 46 45 39 45 40 30 21 32 20 25 16 13 7 356
184 245 20 63 148 145 181 183 173 116 4 264 231 263 98 90 93 103 110 106 103 104 121 98 68 57 54 57 48 48 42 44 40 38 34 35 32 31 22 16 18 13 352 352
175 324 244 191 97 21 151 174 73 17 207 232 267 248 207 167 141 129 122 122 145 147 122 120 119 110 85 85 72 42 24 23 27 43 41 34 11 4 19 32 17 355 321 337
122 125 252 113 188 184 75 255 258 149 165 196 248 261 175 148 153 143 155 173 183 177 168 157 127 104 89 68 82 101 102 45 17 28 19 6 356 355 349 351 349 350 334 326
180 158 211 219 248 165 195 227 181 162 242 239 186 266 139 142 148 154 194 208 186 176 158 138 128 131 128 127 112 150 160 203 214 75 40 327 302 320 321 330 325 333 326 320
169 195 19 333 18 36 146 170 133 121 109 231 227 258 204 134 178 224 222 205 177 146 137 136 135 149 171 190 178 180 195 213 217 199 216 270 279 276 285 284 285 287 291 283
92 150 167 211 166 122 282 288 73 131 145 221 240 274 273 278 266 265 236 196 168 159 162 164 166 178 189 187 194 216 222 221 239 244 279 275 270 260 247 246 244 244 242 243
120 190 204 256 336 110 227 266 281 196 239 216 263 260 263 287 293 186 168 140 160 185 188 189 194 204 212 216 230 243 248 246 229 255 248 257 258 264 281 285 289 276 261 266
22 206 80 314 263 260 258 260 261 254 250 246 251 261 271 161 176 169 190 177 186 201 204 202 216 226 229 221 225 238 250 294 0 335 322 325 329 326 322 317 313 311 309 306
138 129 87 267 235 47 306 243 239 237 234 228 232 246 179 261 211 160 163 172 188 208 211 214 219 227 241 238 231 237 16 24 2 334 329 324 320 312 309 306 305 305 306 303
145 124 117 219 42 258 244 273 217 220 244 204 258 237 224 215 148 164 206 202 15 234 262 253 233 242 167 102 72 74 36 359 340 325 304 299 301 302 315 315 311 309 306 302
178 160 166 170 201 304 297 240 202 182 265 173 191 235 200 153 98 307 207 170 201 219 240 233 198 136 107 93 65 51 19 349 333 312 302 312 336 316 311 305 305 304 303 299
208 203 170 79 178 209 237 226 146 95 272 230 173 226 170 140 146 236 257 242 252 246 226 154 126 110 103 80 71 57 345 321 300 305 319 316 312 305 302 300 300 297 295 292
89 61 216 224 229 274 238 209 150 103 263 211 182 199 178 186 203 213 235 255 245 236 156 128 118 123 125 100 70 44 325 290 301 318 307 305 306 301 295 294 295 294 292 289
156 162 200 84 197 269 194 79 161 212 189 189 202 213 205 224 244 240 254 253 224 172 143 130 127 133 115 98 92 244 272 303 312 306 307 301 295 292 293 289 289 288 287 285
231 196 182 181 205 222 204 191 225 176 184 205 199 223 215 230 249 257 244 230 177 175 162 140 129 137 147 122 135 239 291 305 307 287 284 284 288 289 287 290 292 292 287 286
267 167 201 82 219 232 216 228 229 208 221 231 219 227 222 228 237 244 236 193 184 164 146 115 106 148 205 179 315 264 299 308 280 269 285 291 294 296 292 291 290 289 287 289
214 147 212 254 259 270 265 251 247 233 230 237 237 214 224 215 240 234 227 173 151 139 115 88 94 211 226 212 255 269 288 283 299 296 299 299 295 296 300 293 290 284 282 283
227 236 238 244 242 224 239 241 226 219 237 241 239 252 233 208 228 169 141 131 123 118 100 79 307 295 278 283 277 269 274 272 291 302 304 301 297 302 300 297 294 293 297 299